Location: Izdebno
(52.6670°N, 16.2170°E)
Time: 12:07:45
(UTC+01:00)

Transit 2A Rocket - Visible Passes

Search period start: 31 January 2023 00:00
Search period end: 10 February 2023 00:00
Orbit: 585 x 915 km, 66.7° (Epoch: 30 January)

Date Brightness Start Highest point End Pass type
(mag) Time Alt. Az. Time Alt. Az. Time Alt. Az.
31 Jan 7.2 03:45:46 20° N 03:45:46 20° N 03:48:38 10° NE visible
31 Jan 7.0 05:25:38 15° NNW 05:28:41 21° NNE 05:33:12 10° ENE visible
01 Feb 7.6 03:03:46 16° NNE 03:03:46 16° NNE 03:05:22 10° NE visible
01 Feb 7.0 04:43:37 19° NNW 04:45:04 20° N 04:49:24 10° NE visible
01 Feb 6.6 06:24:13 10° NW 06:29:24 32° NNE 06:34:48 10° E visible
02 Feb 8.0 02:21:46 12° NNE 02:21:46 12° NNE 02:22:12 10° NE visible
02 Feb 7.1 04:01:37 20° N 04:01:37 20° N 04:05:44 10° NE visible
02 Feb 6.9 05:41:28 12° NNW 05:45:55 26° NNE 05:50:58 10° ENE visible
03 Feb 7.4 03:19:37 19° NNE 03:19:37 19° NNE 03:22:14 10° NE visible
03 Feb 7.0 04:59:28 16° NNW 05:02:23 23° NNE 05:07:05 10° ENE visible
03 Feb 6.2 06:40:39 10° NW 06:46:21 47° NE 06:52:14 10° ESE visible
04 Feb 7.8 02:37:36 15° NNE 02:37:36 15° NNE 02:38:53 10° NE visible
04 Feb 7.0 04:17:28 20° N 04:18:46 21° N 04:23:13 10° ENE visible
04 Feb 6.5 05:57:35 10° NW 06:03:00 36° NNE 06:08:36 10° E visible
05 Feb 8.2 01:55:36 10° NE 01:55:36 10° NE 01:55:40 10° NE visible
05 Feb 7.2 03:35:28 20° N 03:35:28 20° N 03:39:28 10° NE visible
05 Feb 6.8 05:15:19 14° NNW 05:19:33 29° NNE 05:24:50 10° E visible
06 Feb 7.5 02:53:29 18° NNE 02:53:29 18° NNE 02:55:52 10° NE visible
06 Feb 7.0 04:33:20 18° NNW 04:36:02 25° NNE 04:40:58 10° ENE visible
06 Feb 5.9 06:14:00 10° NW 06:19:51 56° NE 06:25:52 10° ESE visible
07 Feb 7.9 02:11:29 13° NNE 02:11:29 13° NNE 02:12:26 10° NE visible
07 Feb 7.1 03:51:20 21° N 03:52:27 22° NNE 03:57:04 10° ENE visible
07 Feb 6.3 05:31:12 11° NNW 05:36:33 42° NE 05:42:20 10° ESE visible
08 Feb 7.3 03:09:22 20° NNE 03:09:22 20° NNE 03:13:15 10° NE visible
08 Feb 6.7 04:49:13 17° NNW 04:53:09 33° NNE 04:58:38 10° E visible
08 Feb 5.4 06:30:26 10° NW 06:36:27 88° SW 06:42:35 10° SE visible
09 Feb 7.7 02:27:25 17° NNE 02:27:25 17° NNE 02:29:34 10° NE visible
09 Feb 7.0 04:07:17 21° NNW 04:09:40 27° NNE 04:14:49 10° E visible
09 Feb 5.7 05:47:20 10° NW 05:53:18 68° NE 05:59:25 10° SE visible
